Livermore, CA

5:44 AM PST on January 16, 2018 (GMT -0800)
Livermore Municipal

Weather History for KLVK - June, 2014

Change the Weather History Date:

Wednesday, June 11, 2014

  Actual Average Record
Temperature  
Mean Temperature 69 °F 66 °F  
Max Temperature 81 °F 80 °F 105 °F (1985)
Min Temperature 57 °F 53 °F 41 °F (1972)
Degree Days  
Heating Degree Days 0 1  
Month to date heating degree days 1 18  
Since 1 June heating degree days 1 18  
Since 1 July heating degree days 1895 2766  
Cooling Degree Days 4 3  
Month to date cooling degree days 91 24  
Year to date cooling degree days 217 77  
Since 1 June cooling degree days 91 24  
Growing Degree Days 18 (Base 50)    
Moisture  
Dew Point 53 °F    
Average Humidity 63    
Maximum Humidity 87    
Minimum Humidity 39    
Precipitation  
Precipitation 0.00 in 0.00 in 0.00 in (2018)
Month to date precipitation 0.00 0.03  
Year to date precipitation 4.88 9.89  
Since 1 July precipitation 7.26  
Sea Level Pressure  
Sea Level Pressure 29.83 in    
Wind  
Wind Speed 12 mph (WNW)    
Max Wind Speed 23 mph    
Max Gust Speed 28 mph    
Visibility 10 miles    
Events      
T = Trace of Precipitation, MM = Missing Value Source: NWS Daily Summary

Daily Weather History Graph

Daily Weather History Graph

Search for Another Location

Airport or City:

Trip Planner

Search our weather history database for the weather conditions in past years. The results will help you decide how hot, cold, wet, or windy it might be!

Date:

Astronomy

Jun. 11, 2014 Rise Set
Actual Time 5:45 AM PDT 8:29 PM PDT
Civil Twilight 5:13 AM PDT 9:00 PM PDT
Nautical Twilight 4:35 AM PDT 9:39 PM PDT
Astronomical Twilight 3:51 AM PDT 10:23 PM PDT
Moon 7:06 PM PDT (6/11) 4:37 AM PDT (6/11)
Length of Visible Light 15h 46m
Length of Day
14h 43m
Waxing Gibbous, 97% of the Moon is Illuminated
Jun 11
Waxing Gibbous
Jun 12
Full
Jun 19
Last Quarter
Jun 27
New
Jul 5
First Quarter

Hourly Weather History & Observations

Time (PDT) Temp. Heat Index Dew Point Humidity Pressure Visibility Wind Dir Wind Speed Gust Speed Precip Events Conditions
12:53 AM 59.0 °F - 55.0 °F 87% 29.79 in 10.0 mi WNW 10.4 mph - N/A   Clear
1:53 AM 59.0 °F - 55.0 °F 87% 29.79 in 10.0 mi WNW 10.4 mph - N/A   Clear
2:53 AM 59.0 °F - 54.0 °F 83% 29.79 in 10.0 mi WNW 11.5 mph - N/A   Clear
3:53 AM 59.0 °F - 53.1 °F 81% 29.79 in 10.0 mi West 10.4 mph - N/A   Clear
4:53 AM 57.9 °F - 52.0 °F 81% 29.81 in 10.0 mi Variable 5.8 mph - N/A   Clear
5:53 AM 57.0 °F - 52.0 °F 83% 29.81 in 10.0 mi NW 3.5 mph - N/A   Clear
6:53 AM 59.0 °F - 52.0 °F 78% 29.82 in 10.0 mi NNW 4.6 mph - N/A   Clear
7:53 AM 63.0 °F - 52.0 °F 67% 29.83 in 10.0 mi WSW 6.9 mph - N/A   Clear
8:53 AM 64.0 °F - 52.0 °F 65% 29.83 in 10.0 mi Calm Calm - N/A   Clear
9:53 AM 68.0 °F - 51.1 °F 55% 29.84 in 10.0 mi SW 3.5 mph - N/A   Clear
10:53 AM 73.0 °F - 51.1 °F 46% 29.84 in 10.0 mi Variable 4.6 mph - N/A   Clear
11:53 AM 77.0 °F - 52.0 °F 42% 29.84 in 8.0 mi WNW 10.4 mph - N/A   Clear
12:53 PM 79.0 °F - 52.0 °F 39% 29.83 in 10.0 mi WNW 13.8 mph - N/A   Clear
1:53 PM 80.1 °F 79.9 °F 53.1 °F 39% 29.83 in 10.0 mi WNW 15.0 mph - N/A   Clear
2:53 PM 79.0 °F - 53.1 °F 40% 29.82 in 10.0 mi WNW 18.4 mph - N/A   Clear
3:53 PM 77.0 °F - 54.0 °F 45% 29.81 in 10.0 mi West 21.9 mph - N/A   Clear
4:53 PM 75.9 °F - 54.0 °F 46% 29.80 in 10.0 mi WNW 18.4 mph - N/A   Clear
5:53 PM 73.9 °F - 54.0 °F 50% 29.81 in 10.0 mi WNW 19.6 mph 25.3 mph N/A   Clear
6:53 PM 69.1 °F - 54.0 °F 58% 29.81 in 10.0 mi West 19.6 mph - N/A   Clear
7:53 PM 64.0 °F - 53.1 °F 67% 29.83 in 10.0 mi WNW 16.1 mph - N/A   Clear
8:53 PM 60.1 °F - 52.0 °F 75% 29.85 in 10.0 mi WNW 16.1 mph - N/A   Clear
9:53 PM 59.0 °F - 52.0 °F 78% 29.87 in 10.0 mi WNW 12.7 mph - N/A   Clear
10:53 PM 57.9 °F - 52.0 °F 81% 29.88 in 10.0 mi WNW 11.5 mph - N/A   Clear
11:53 PM 57.0 °F - 52.0 °F 83% 29.88 in 10.0 mi WNW 11.5 mph - N/A   Partly Cloudy